Flag for U.S.A. Weather past 2 weeks in Fort Myers, Florida, U.S.A.

Now
78 °F

Partly cloudy.


Feels Like: 81 °F
Forecast: 75 / 89 °F
Wind: 5 mph from South

Location: Page Field

Current Time: Jul 24, 2014 at 6:53:49 AM

Latest Report: Jul 24, 2014 at 5:53 AM


Visibility: 10 mi

Pressure: 30.02 "Hg

Humidity: 87%

Dew point: 74 °F

Location of Fort MyersLocation

Historic Weather in Fort Myers — Graph

°F

Fort Myers temperature yesterday

Maximum temperature yesterday: 92 °F (at 2:53 PM)
Minimum temperature yesterday: 75 °F (at 4:53 AM)
Average temperature yesterday: 82 °F

Past Weeks' High & Low Weather Summary

 TemperatureHumidityPressure
High94 °F (Jul 20, 2:53 PM)97% (Jul 10, 3:53 AM)30.14 "Hg (Jul 10, 3:53 AM)
Low72 °F (Jul 10, 2:00 PM)41% (Jul 20, 2:53 PM)29.95 "Hg (Jul 16, 3:53 AM)
Average81 °F79%30.05 "Hg
* Reported Jul 9 4:53 AM — Jul 24 4:53 AM, Fort Myers, Weather by CustomWeather, © 2014

Note: Actual official high and low records may vary slightly from our data, if they occured in-between our weather recording intervals... More about our weather records

Advertising

Fort Myers weather history for previous 24 hours

 ConditionsComfort  
Time TempWeatherWind HumidityBarometerVisibility
4:53 AM
Jul 24
78 °FClear.No wind93%30.01 "Hg10 mi
3:53 AM77 °FClear.3 mph94%30.01 "Hg10 mi
2:53 AM77 °FClear.No wind94%30.02 "Hg10 mi
1:53 AM78 °FClear.No wind90%30.03 "Hg10 mi
12:53 AM79 °FClear.No wind88%30.03 "Hg10 mi
11:53 PM
Jul 23
79 °FClear.No wind88%30.05 "Hg10 mi
10:53 PM79 °FClear.No wind88%30.04 "Hg10 mi
9:53 PM80 °FClear.No wind85%30.05 "Hg10 mi
8:53 PM80 °FSunny.5 mph85%30.03 "Hg10 mi
7:53 PM81 °FPassing clouds.6 mph79%30.03 "Hg10 mi
6:53 PM87 °FScattered clouds.6 mph63%30.02 "Hg10 mi
5:53 PM88 °FSunny.8 mph63%30.02 "Hg10 mi
4:53 PM89 °FPassing clouds.6 mph57%30.03 "Hg10 mi
3:53 PM88 °FPassing clouds.7 mph55%30.03 "Hg10 mi
2:53 PM92 °FPassing clouds.3 mph49%30.05 "Hg10 mi
1:53 PM89 °FScattered clouds.3 mph59%30.06 "Hg10 mi
12:53 PM89 °FPassing clouds.5 mph59%30.07 "Hg10 mi
11:53 AM88 °FSunny.6 mph61%30.08 "Hg10 mi
10:53 AM85 °FSunny.3 mph70%30.08 "Hg10 mi
9:53 AM84 °FSunny.No wind74%30.09 "Hg10 mi
8:53 AM81 °FSunny.3 mph82%30.08 "Hg10 mi
6:53 AM75 °FClear.No wind96%30.06 "Hg9 mi
Weather by CustomWeather, © 2014

See weather overviewHow to use our weather pages